When you browse on this site, cookies collect data to enhance your experience and personalize the content and advertising you see.
Visit our Privacy Policy to learn more. By continuing to use the site, you agree to this use of cookies and data.
  • In United Kingdom
  • List of Countries
  • For 7 days
  • Water Temperature
  • Satellite Maps
  • Weather Map
  • Weather Widgets
  • user-avatar
    Login

    Hourly Weather Mafeteng

    Today, 22 February, Friday

    Time Temperature Precipitation Wind Pressure Humidity
    00:00 +19°C° 0 mm 1 mps 629 mmHg 46%
    01:00 +18°C° 0 mm 1 mps 629 mmHg 49%
    02:00 +16°C° 0 mm 1 mps 629 mmHg 53%
    03:00 +16°C° 0 mm 1 mps 628 mmHg 54%
    04:00 +16°C° 0 mm 1 mps 628 mmHg 55%
    05:00 +16°C° 0 mm 1 mps 628 mmHg 56%
    06:00 +18°C° 0 mm 2 mps 629 mmHg 48%
    07:00 +19°C° 0 mm 2 mps 629 mmHg 41%
    08:00 +21°C° 0 mm 2 mps 630 mmHg 34%
    09:00 +23°C° 0 mm 4 mps 630 mmHg 33%
    10:00 +26°C° 0 mm 5 mps 631 mmHg 32%
    11:00 +28°C° 0 mm 6 mps 631 mmHg 31%
    12:00 +29°C° 0 mm 6 mps 631 mmHg 28%
    13:00 +30°C° 0 mm 6 mps 630 mmHg 25%
    14:00 +32°C° 0 mm 6 mps 630 mmHg 21%
    15:00 +32°C° 0 mm 5 mps 630 mmHg 21%
    16:00 +30°C° 0 mm 4 mps 629 mmHg 22%
    17:00 +30°C° 0 mm 4 mps 629 mmHg 22%
    18:00 +28°C° 0 mm 3 mps 628 mmHg 25%
    19:00 +26°C° 0 mm 2 mps 627 mmHg 28%
    20:00 +24°C° 0 mm 2 mps 626 mmHg 31%
    21:00 +24°C° 0 mm 2 mps 626 mmHg 32%
    22:00 +23°C° 0 mm 2 mps 626 mmHg 34%
    23:00 +23°C° 0 mm 2 mps 626 mmHg 35%

    Tomorrow, 23 February, Saturday

    Time Temperature Precipitation Wind Pressure Humidity
    00:00 +21°C° 0 mm 2 mps 626 mmHg 37%
    01:00 +20°C° 0 mm 2 mps 625 mmHg 40%
    02:00 +19°C° 0 mm 2 mps 625 mmHg 42%
    03:00 +18°C° 0 mm 2 mps 624 mmHg 45%
    04:00 +17°C° 0 mm 2 mps 624 mmHg 48%
    05:00 +17°C° 0 mm 2 mps 624 mmHg 51%
    06:00 +18°C° 0 mm 2 mps 625 mmHg 47%
    07:00 +20°C° 0 mm 2 mps 625 mmHg 43%
    08:00 +23°C° 0 mm 2 mps 626 mmHg 39%
    09:00 +25°C° 0 mm 2 mps 627 mmHg 33%
    10:00 +27°C° 0 mm 3 mps 627 mmHg 28%
    11:00 +29°C° 0 mm 3 mps 628 mmHg 22%
    12:00 +30°C° 0 mm 4 mps 628 mmHg 21%
    13:00 +32°C° 0 mm 4 mps 627 mmHg 20%
    14:00 +33°C° 0 mm 5 mps 627 mmHg 19%
    15:00 +32°C° 0 mm 5 mps 627 mmHg 20%
    16:00 +32°C° 0 mm 6 mps 626 mmHg 21%
    17:00 +30°C° 0 mm 6 mps 626 mmHg 22%
    18:00 +28°C° 0 mm 5 mps 626 mmHg 26%
    19:00 +25°C° 0 mm 3 mps 625 mmHg 30%
    20:00 +23°C° 0 mm 2 mps 625 mmHg 34%
    21:00 +21°C° 0 mm 2 mps 625 mmHg 36%
    22:00 +20°C° 0 mm 2 mps 625 mmHg 39%
    23:00 +20°C° 0 mm 2 mps 626 mmHg 41%

    Day after tomorrow, 24 February, Sunday

    Time Temperature Precipitation Wind Pressure Humidity
    00:00 +19°C° 0 mm 2 mps 625 mmHg 45%
    01:00 +18°C° 0 mm 2 mps 625 mmHg 49%
    02:00 +18°C° 0 mm 1 mps 624 mmHg 53%
    03:00 +18°C° 0 mm 1 mps 624 mmHg 57%
    04:00 +16°C° 0 mm 1 mps 624 mmHg 61%
    05:00 +15°C° 0 mm 1 mps 623 mmHg 65%
    06:00 +19°C° 0 mm 1 mps 624 mmHg 58%
    07:00 +21°C° 0 mm 1 mps 625 mmHg 51%
    08:00 +21°C° 0 mm 0 mps 626 mmHg 44%
    09:00 +25°C° 0 mm 1 mps 627 mmHg 39%
    10:00 +27°C° 0 mm 2 mps 627 mmHg 33%
    11:00 +29°C° 0 mm 2 mps 628 mmHg 27%
    12:00 +29°C° 0 mm 3 mps 627 mmHg 26%
    13:00 +30°C° 0 mm 3 mps 627 mmHg 25%
    14:00 +30°C° 0 mm 4 mps 627 mmHg 24%
    15:00 +30°C° 0 mm 3 mps 626 mmHg 25%
    16:00 +29°C° 0 mm 3 mps 626 mmHg 26%
    17:00 +29°C° 0 mm 3 mps 626 mmHg 27%
    18:00 +27°C° 0.1 mm 3 mps 626 mmHg 34%
    19:00 +25°C° 0.1 mm 3 mps 626 mmHg 41%
    20:00 +21°C° 0.1 mm 2 mps 626 mmHg 49%
    21:00 +20°C° 0.2 mm 2 mps 626 mmHg 53%
    22:00 +19°C° 0.2 mm 2 mps 626 mmHg 58%
    23:00 +19°C° 0.2 mm 1 mps 626 mmHg 62%

    25 February, Monday

    Time Temperature Precipitation Wind Pressure Humidity
    00:00 +19°C° 0 mm 1 mps 626 mmHg 64%
    01:00 +18°C° 0 mm 1 mps 626 mmHg 66%
    02:00 +18°C° 0 mm 1 mps 625 mmHg 67%
    03:00 +16°C° 0 mm 1 mps 625 mmHg 69%
    04:00 +15°C° 0 mm 1 mps 625 mmHg 72%
    05:00 +15°C° 0 mm 1 mps 625 mmHg 74%
    06:00 +18°C° 0 mm 1 mps 626 mmHg 66%
    07:00 +20°C° 0 mm 1 mps 627 mmHg 59%
    08:00 +22°C° 0 mm 1 mps 628 mmHg 52%
    09:00 +24°C° 0 mm 1 mps 628 mmHg 45%
    10:00 +26°C° 0 mm 2 mps 628 mmHg 38%
    11:00 +28°C° 0 mm 3 mps 629 mmHg 31%
    12:00 +28°C° 0 mm 3 mps 628 mmHg 30%
    13:00 +28°C° 0 mm 3 mps 628 mmHg 29%
    14:00 +29°C° 0 mm 4 mps 627 mmHg 28%
    15:00 +29°C° 0 mm 3 mps 627 mmHg 28%
    16:00 +29°C° 0 mm 3 mps 627 mmHg 28%
    17:00 +29°C° 0 mm 2 mps 626 mmHg 28%
    18:00 +26°C° 0 mm 2 mps 626 mmHg 34%
    19:00 +24°C° 0 mm 1 mps 625 mmHg 40%
    20:00 +19°C° 0 mm 0 mps 624 mmHg 46%
    21:00 +21°C° 0 mm 1 mps 624 mmHg 45%
    22:00 +20°C° 0 mm 2 mps 625 mmHg 44%
    23:00 +20°C° 0 mm 3 mps 625 mmHg 43%

    26 February, Tuesday

    Time Temperature Precipitation Wind Pressure Humidity
    00:00 +20°C° 0 mm 3 mps 625 mmHg 47%
    01:00 +19°C° 0 mm 3 mps 624 mmHg 51%
    02:00 +18°C° 0 mm 2 mps 624 mmHg 55%
    03:00 +17°C° 0 mm 2 mps 623 mmHg 60%
    04:00 +16°C° 0 mm 2 mps 623 mmHg 66%
    05:00 +16°C° 0 mm 1 mps 623 mmHg 71%
    06:00 +17°C° 0.1 mm 2 mps 623 mmHg 66%
    07:00 +19°C° 0.1 mm 3 mps 624 mmHg 61%
    08:00 +21°C° 0.1 mm 4 mps 625 mmHg 57%
    09:00 +23°C° 0 mm 5 mps 625 mmHg 50%
    10:00 +24°C° 0 mm 6 mps 625 mmHg 44%
    11:00 +27°C° 0 mm 7 mps 625 mmHg 38%
    12:00 +29°C° 0 mm 8 mps 625 mmHg 29%
    13:00 +31°C° 0 mm 8 mps 625 mmHg 21%
    14:00 +32°C° 0 mm 8 mps 625 mmHg 13%
    15:00 +31°C° 0 mm 8 mps 625 mmHg 15%
    16:00 +31°C° 0 mm 8 mps 625 mmHg 16%
    17:00 +29°C° 0 mm 9 mps 624 mmHg 17%
    18:00 +27°C° 0 mm 7 mps 624 mmHg 21%
    19:00 +24°C° 0 mm 6 mps 624 mmHg 25%
    20:00 +22°C° 0 mm 5 mps 624 mmHg 29%
    21:00 +20°C° 0 mm 3 mps 623 mmHg 38%
    22:00 +18°C° 0 mm 2 mps 623 mmHg 47%
    23:00 +15°C° 0 mm 0 mps 622 mmHg 55%

    27 February, Wednesday

    Time Temperature Precipitation Wind Pressure Humidity
    00:00 +16°C° 0 mm 1 mps 623 mmHg 55%
    01:00 +15°C° 0 mm 1 mps 623 mmHg 55%
    02:00 +15°C° 0 mm 1 mps 623 mmHg 55%
    03:00 +14°C° 0 mm 2 mps 623 mmHg 61%
    04:00 +13°C° 0 mm 2 mps 623 mmHg 67%
    05:00 +13°C° 0 mm 2 mps 623 mmHg 74%
    06:00 +14°C° 0 mm 2 mps 624 mmHg 70%
    07:00 +16°C° 0 mm 2 mps 625 mmHg 66%
    08:00 +17°C° 0 mm 2 mps 625 mmHg 63%
    09:00 +19°C° 0 mm 3 mps 626 mmHg 51%
    10:00 +21°C° 0 mm 3 mps 627 mmHg 39%
    11:00 +23°C° 0 mm 4 mps 627 mmHg 27%
    12:00 +25°C° 0 mm 4 mps 627 mmHg 23%
    13:00 +26°C° 0 mm 4 mps 627 mmHg 19%
    14:00 +27°C° 0 mm 5 mps 627 mmHg 16%
    15:00 +26°C° 0 mm 5 mps 627 mmHg 15%
    16:00 +26°C° 0 mm 5 mps 627 mmHg 15%
    17:00 +26°C° 0 mm 5 mps 627 mmHg 15%
    18:00 +22°C° 0 mm 5 mps 627 mmHg 18%
    19:00 +20°C° 0 mm 4 mps 626 mmHg 22%
    20:00 +17°C° 0 mm 3 mps 626 mmHg 25%
    21:00 +16°C° 0 mm 2 mps 626 mmHg 26%
    22:00 +15°C° 0 mm 2 mps 626 mmHg 27%
    23:00 +14°C° 0 mm 1 mps 626 mmHg 29%
    Show more